Wind_Speed
37 39 40 42 43 44 46 48 49 50 50 50 52 50 48 47 45 42 40 38 37 35 33 32 32 31 29 27 26 26 26 27 26 25 24 24 23 23 23 24 24 24 23
37 38 39 41 42 44 45 47 48 50 51 50 50 51 51 49 47 45 42 40 39 36 35 33 31 30 29 28 27 27 26 26 27 28 27 26 25 25 25 25 26 25 25
34 35 36 38 39 40 42 44 46 47 48 49 50 49 50 49 48 47 45 43 41 38 36 36 33 30 27 26 26 25 25 26 27 29 29 29 28 27 27 27 27 27 26
29 30 30 31 33 34 36 37 39 40 42 43 45 46 46 47 46 46 46 45 44 40 38 36 35 32 29 29 28 27 27 26 26 27 28 30 30 29 27 27 28 28 28
25 25 25 26 27 28 28 29 30 32 33 35 37 40 41 43 43 43 43 44 44 43 40 38 36 34 32 31 29 27 26 26 26 27 29 30 30 30 30 29 29 29 29
22 21 21 21 20 19 20 21 21 22 24 26 30 33 36 38 40 40 41 42 42 41 40 38 36 35 34 33 31 29 28 26 26 27 28 30 31 29 30 31 31 31 31
17 17 17 17 15 13 13 15 16 16 17 19 22 25 29 32 34 36 37 37 37 37 38 38 37 35 34 33 33 31 29 27 27 26 26 28 30 32 32 32 32 32 32
14 15 15 14 13 11 10 10 10 9 10 12 14 17 21 24 27 29 31 32 33 35 35 36 35 34 34 33 32 32 30 29 28 28 27 28 29 32 33 34 34 34 34
14 15 15 14 14 12 11 10 8 6 6 6 8 10 13 15 18 21 24 27 30 31 32 33 33 33 33 33 32 32 32 31 31 30 30 30 30 31 32 33 34 35 35
16 16 16 15 15 15 14 12 10 9 7 5 4 4 7 10 13 16 19 22 25 27 29 30 31 32 33 33 34 34 34 34 34 34 33 33 33 33 33 33 33 34 36
18 18 17 16 16 17 16 15 14 12 11 9 6 4 2 4 7 11 14 17 20 23 24 26 29 31 32 33 34 35 36 36 36 37 36 36 35 35 34 34 35 34 34
19 20 20 20 20 19 19 17 16 15 13 11 10 7 5 2 2 5 8 11 14 17 19 22 25 27 29 31 33 34 35 36 36 37 37 37 38 38 37 36 35 35 34
20 21 21 21 21 20 20 19 18 17 16 14 12 11 9 6 4 2 2 5 9 12 14 17 20 22 24 27 29 30 32 33 34 34 35 35 35 36 36 35 35 34 34
19 20 21 21 21 21 21 21 20 19 18 16 15 14 12 10 8 5 3 2 4 6 9 11 14 16 19 21 23 24 27 29 29 30 31 32 32 32 31 32 32 31 31
20 20 21 21 21 22 22 21 21 20 20 19 18 16 15 13 11 9 7 5 3 3 5 7 9 12 15 17 19 21 22 23 25 26 27 27 28 28 28 27 26 26 26
19 19 20 21 21 22 22 21 21 20 20 20 19 18 17 15 13 12 11 8 7 6 5 6 8 11 13 15 16 18 20 20 21 22 23 24 23 24 25 25 24 22 21
18 18 19 20 20 21 21 21 21 21 21 21 20 20 19 18 16 15 13 12 10 9 9 8 9 10 11 13 15 16 16 17 18 19 19 20 20 21 23 23 22 21 19
18 18 18 19 20 20 21 21 21 21 21 21 21 21 20 19 18 17 16 15 13 12 11 11 11 11 10 11 12 15 15 16 16 18 17 18 19 19 20 19 18 18 18
17 18 18 19 19 20 20 20 20 21 21 21 21 21 20 19 19 18 18 17 16 15 14 14 14 12 11 9 10 12 13 15 16 16 17 17 18 18 18 18 18 17 17
16 17 17 18 19 19 19 19 20 20 21 21 21 21 20 20 19 19 19 19 19 17 17 16 16 14 12 11 10 10 11 13 14 14 15 16 17 18 18 18 18 17 16
15 16 16 17 18 18 19 19 19 20 20 20 20 20 20 20 20 20 20 20 20 19 19 18 18 16 14 12 10 9 8 9 11 12 14 15 16 17 17 17 17 16 15
14 14 15 16 16 17 18 18 18 19 20 20 20 20 21 21 21 21 21 21 21 21 21 20 20 19 17 14 10 6 4 6 8 11 12 14 16 17 17 17 16 15 15
12 13 13 14 15 16 16 17 18 19 19 20 21 21 21 21 21 21 21 21 22 22 22 22 21 20 19 16 12 8 4 2 6 9 11 14 14 16 16 16 15 15 14
11 11 12 12 13 14 15 16 17 18 19 19 20 21 21 21 21 21 21 21 22 22 22 23 22 21 20 19 16 13 8 5 5 7 10 13 14 14 14 15 15 15 14
11 11 11 11 12 13 13 14 15 17 18 19 20 21 21 21 21 21 21 22 22 23 23 23 23 23 22 21 19 17 14 11 9 10 11 13 14 14 14 14 14 13 13
10 11 11 11 11 11 12 12 13 15 16 18 19 20 21 21 21 21 22 22 22 22 23 23 23 23 23 22 21 20 18 16 15 14 15 15 15 14 14 14 13 13 13
Wind_Direction
279 277 274 272 269 267 265 262 260 259 258 257 256 255 253 251 249 246 247 247 247 248 250 251 250 247 248 250 252 252 253 252 249 247 247 247 247 248 249 249 249 250 251
283 281 278 275 273 271 269 266 263 261 260 258 257 255 253 252 251 251 251 249 248 249 252 252 254 253 251 253 256 257 256 255 253 250 249 249 248 250 251 251 251 252 253
288 285 282 280 278 277 274 270 267 264 262 260 258 256 254 253 252 250 250 250 250 251 251 254 255 255 258 259 257 258 259 257 256 253 250 248 248 250 252 252 252 253 254
296 293 289 286 283 281 278 274 269 265 263 261 259 257 256 254 253 252 251 251 251 250 251 253 256 257 258 259 261 262 262 261 257 254 251 248 247 248 250 252 253 254 255
307 305 302 296 290 286 281 276 271 266 262 260 257 254 254 253 253 252 251 250 251 251 252 254 256 258 259 260 261 263 262 261 258 256 253 249 247 248 247 250 253 255 255
316 316 315 311 304 296 287 279 275 270 264 259 255 252 250 250 250 251 250 249 250 251 252 253 256 258 259 260 261 261 261 260 258 256 253 249 248 248 248 249 250 252 254
327 327 328 325 321 314 303 291 286 278 270 264 257 251 248 247 248 248 248 248 249 249 250 252 254 255 256 256 257 257 257 257 257 255 252 249 247 248 249 248 248 248 252
350 349 349 349 345 341 334 320 309 295 280 270 262 255 248 244 244 245 244 244 245 245 246 248 249 250 250 250 251 251 251 253 253 252 251 250 250 250 249 249 248 247 249
16 16 16 11 7 5 360 357 355 343 329 302 273 258 250 243 240 240 240 240 241 242 243 244 245 246 246 246 247 247 248 249 250 251 253 254 254 253 252 252 250 248 247
29 24 23 23 25 27 27 23 19 16 15 3 334 271 251 242 240 237 237 238 239 240 241 241 242 243 244 245 245 247 248 249 249 250 251 252 253 253 253 253 254 252 249
38 37 36 33 34 36 35 35 36 34 32 30 26 10 305 258 243 239 238 238 238 240 241 242 242 242 243 244 245 246 248 249 250 251 251 251 252 253 253 254 254 255 252
46 46 45 43 43 43 40 40 38 39 38 36 37 33 26 1 280 249 242 239 239 240 242 243 244 244 244 245 246 246 247 249 250 251 251 251 252 252 252 254 254 254 255
50 49 48 46 46 45 42 41 41 41 39 39 38 39 39 39 33 11 267 249 244 243 245 245 244 245 245 246 247 247 248 248 249 248 248 249 250 248 250 251 252 252 253
51 49 48 47 46 45 44 43 43 43 43 42 42 43 42 44 44 43 29 330 272 255 253 252 252 250 249 248 248 247 248 247 246 246 246 246 246 246 246 246 248 248 248
50 50 49 48 47 46 45 45 45 45 45 44 43 42 42 43 44 42 36 24 4 314 283 272 266 262 256 252 249 247 246 243 243 244 244 245 243 241 241 240 241 241 241
50 48 47 46 46 45 44 45 45 45 44 44 44 44 45 46 46 43 37 29 20 5 336 308 292 281 269 260 255 252 248 244 242 241 240 237 234 234 235 235 234 235 233
46 45 44 44 44 44 44 45 46 46 46 45 45 45 46 46 45 41 35 28 20 11 359 342 322 304 286 269 261 256 253 249 241 235 233 231 228 228 229 226 223 223 221
44 44 43 43 43 44 44 45 45 45 45 44 44 44 44 42 40 36 32 26 19 12 3 352 340 324 304 283 269 261 257 251 244 235 228 225 221 219 217 214 214 214 213
42 43 44 43 43 43 43 44 44 44 43 42 42 41 40 39 37 34 31 27 21 15 8 1 352 342 326 306 285 269 260 253 242 233 227 222 217 214 211 209 209 209 209
40 41 42 42 41 41 42 42 42 41 40 39 38 37 37 35 34 32 29 26 22 18 12 6 0 353 342 325 305 284 267 251 241 231 223 217 211 207 208 208 205 205 207
35 37 37 39 40 40 40 40 39 38 37 35 34 34 33 33 31 29 27 25 21 18 14 10 5 0 353 342 325 302 271 244 235 227 218 211 206 205 205 204 204 204 206
29 32 35 37 37 38 38 38 37 35 34 33 32 31 31 30 29 27 25 23 20 18 16 14 12 10 7 1 352 335 288 235 222 217 212 206 202 201 200 201 202 201 202
23 26 29 32 34 35 35 36 35 34 33 32 30 30 29 28 27 26 24 23 21 20 19 18 17 18 18 18 17 15 8 199 198 197 196 193 191 193 191 190 192 194 196
18 20 22 25 27 29 31 32 32 32 31 30 29 29 28 28 27 25 25 24 23 23 23 23 24 25 28 30 34 37 48 81 137 165 173 176 177 178 180 181 182 184 185
13 15 17 20 22 24 26 27 27 28 28 28 28 28 28 28 27 27 26 27 27 27 28 29 31 33 36 38 42 48 58 74 100 127 145 153 159 164 167 169 173 175 177
9 12 14 15 17 20 22 23 22 23 25 26 27 27 27 27 27 28 28 29 30 31 32 33 35 38 41 44 49 56 64 75 91 108 124 135 143 149 154 158 161 165 168
Height
5854 5852 5849 5848 5846 5845 5844 5844 5844 5844 5844 5845 5846 5847 5849 5851 5853 5855 5857 5859 5860 5863 5865 5866 5868 5870 5872 5874 5875 5877 5878 5880 5882 5884 5886 5887 5889 5890 5891 5893 5894 5895 5896
5844 5841 5838 5836 5834 5832 5831 5830 5830 5831 5831 5833 5834 5836 5838 5840 5843 5845 5848 5850 5852 5855 5857 5859 5861 5863 5865 5867 5868 5870 5872 5873 5875 5877 5879 5881 5883 5884 5885 5887 5888 5889 5890
5834 5831 5827 5824 5822 5820 5818 5817 5817 5818 5818 5820 5822 5824 5827 5829 5832 5835 5838 5841 5844 5846 5849 5851 5853 5855 5857 5859 5861 5863 5865 5866 5868 5870 5872 5874 5876 5877 5879 5880 5882 5883 5884
5825 5821 5818 5815 5812 5809 5807 5805 5804 5805 5806 5808 5810 5813 5815 5818 5821 5825 5828 5831 5834 5838 5840 5842 5845 5847 5849 5852 5854 5856 5858 5859 5861 5862 5864 5867 5868 5870 5872 5873 5875 5876 5877
5818 5814 5810 5806 5803 5800 5797 5795 5794 5794 5795 5797 5799 5801 5804 5808 5811 5814 5817 5821 5824 5828 5831 5834 5837 5839 5842 5844 5846 5849 5851 5853 5854 5855 5857 5859 5860 5863 5865 5867 5868 5869 5870
5813 5809 5805 5800 5796 5793 5790 5788 5787 5786 5787 5788 5789 5791 5794 5798 5801 5804 5807 5811 5814 5818 5822 5825 5828 5831 5834 5836 5838 5841 5843 5845 5846 5848 5849 5851 5853 5855 5857 5859 5860 5861 5863
5809 5805 5801 5796 5792 5789 5786 5784 5783 5782 5781 5781 5782 5783 5786 5788 5792 5795 5798 5802 5805 5809 5812 5816 5819 5822 5825 5828 5830 5833 5835 5837 5839 5841 5842 5844 5846 5848 5849 5851 5852 5854 5855
5807 5803 5799 5795 5791 5787 5784 5782 5780 5778 5777 5777 5777 5778 5779 5781 5783 5787 5790 5793 5797 5800 5804 5807 5810 5814 5817 5819 5822 5824 5827 5829 5831 5833 5835 5836 5838 5839 5841 5843 5844 5845 5847
5807 5803 5799 5795 5791 5788 5784 5782 5780 5777 5776 5775 5774 5774 5775 5776 5778 5780 5783 5786 5789 5792 5795 5799 5802 5805 5808 5811 5813 5816 5818 5821 5823 5825 5827 5828 5830 5831 5832 5834 5836 5838 5839
5809 5805 5801 5797 5793 5790 5786 5783 5780 5778 5776 5775 5773 5772 5773 5773 5774 5776 5778 5780 5783 5785 5788 5791 5793 5796 5799 5802 5805 5807 5809 5812 5814 5816 5818 5820 5821 5823 5824 5825 5827 5829 5830
5811 5808 5804 5800 5796 5792 5789 5785 5782 5780 5778 5776 5774 5773 5772 5772 5772 5773 5774 5776 5778 5780 5782 5784 5786 5788 5791 5794 5796 5798 5801 5803 5805 5807 5809 5811 5812 5814 5816 5817 5819 5820 5822
5815 5811 5807 5803 5799 5796 5792 5788 5785 5783 5780 5778 5776 5774 5773 5772 5772 5772 5772 5773 5774 5775 5777 5778 5780 5782 5784 5786 5788 5790 5791 5793 5795 5797 5799 5801 5803 5805 5807 5809 5810 5812 5813
5819 5815 5811 5807 5804 5800 5796 5792 5789 5786 5783 5781 5778 5776 5774 5773 5772 5772 5771 5771 5772 5772 5773 5774 5775 5776 5777 5778 5780 5781 5783 5784 5786 5788 5789 5791 5793 5796 5798 5800 5802 5803 5805
5822 5819 5815 5812 5808 5804 5800 5796 5793 5790 5787 5784 5781 5778 5776 5775 5773 5773 5772 5771 5771 5771 5771 5771 5771 5771 5772 5772 5773 5774 5775 5776 5777 5779 5780 5782 5784 5787 5789 5791 5793 5795 5797
5826 5823 5820 5816 5812 5808 5805 5801 5797 5794 5791 5787 5784 5782 5779 5777 5775 5774 5773 5771 5770 5769 5769 5768 5768 5767 5767 5767 5767 5767 5768 5769 5770 5771 5772 5774 5777 5779 5781 5784 5786 5788 5790
5830 5827 5823 5820 5816 5812 5809 5805 5802 5798 5795 5791 5788 5785 5782 5780 5778 5776 5774 5772 5770 5769 5767 5766 5765 5763 5762 5761 5761 5761 5761 5762 5763 5764 5766 5768 5770 5772 5775 5777 5780 5782 5784
5834 5830 5827 5823 5820 5816 5813 5809 5806 5802 5799 5795 5792 5788 5785 5783 5780 5778 5775 5773 5771 5768 5766 5764 5761 5759 5757 5756 5755 5755 5756 5756 5757 5758 5760 5762 5764 5766 5769 5771 5774 5777 5779
5837 5834 5830 5827 5824 5820 5817 5813 5810 5806 5803 5799 5795 5792 5789 5786 5783 5780 5777 5774 5771 5768 5765 5762 5759 5756 5753 5751 5751 5751 5751 5751 5752 5753 5755 5757 5759 5761 5764 5767 5770 5772 5775
5840 5837 5834 5831 5827 5824 5820 5817 5814 5810 5806 5803 5799 5796 5792 5789 5785 5782 5778 5775 5771 5768 5764 5761 5757 5753 5750 5748 5746 5745 5745 5746 5746 5748 5749 5752 5754 5757 5760 5763 5766 5769 5772
5843 5840 5837 5834 5831 5827 5824 5821 5817 5814 5810 5806 5803 5799 5795 5792 5788 5784 5780 5776 5772 5768 5764 5760 5756 5752 5748 5745 5742 5741 5740 5740 5741 5743 5744 5746 5749 5753 5756 5759 5763 5766 5769
5846 5843 5840 5837 5834 5830 5827 5824 5821 5817 5813 5810 5806 5802 5798 5794 5791 5787 5783 5778 5774 5769 5765 5760 5755 5750 5746 5742 5739 5737 5736 5736 5737 5738 5740 5743 5746 5749 5753 5757 5760 5764 5767
5848 5845 5843 5839 5836 5833 5830 5827 5824 5820 5816 5813 5809 5805 5801 5797 5793 5789 5785 5780 5776 5771 5766 5760 5755 5750 5745 5740 5736 5734 5733 5733 5734 5736 5738 5740 5743 5747 5751 5755 5758 5762 5766
5850 5847 5845 5842 5839 5836 5833 5830 5826 5823 5819 5816 5812 5808 5804 5800 5796 5792 5787 5783 5778 5773 5767 5762 5756 5751 5745 5740 5736 5733 5731 5731 5732 5734 5736 5739 5742 5746 5750 5754 5757 5761 5765
5851 5849 5846 5843 5841 5838 5835 5832 5829 5826 5822 5819 5815 5811 5807 5803 5798 5794 5790 5785 5780 5775 5770 5764 5758 5753 5748 5743 5739 5735 5732 5731 5731 5732 5735 5738 5742 5746 5749 5753 5757 5761 5764
5852 5850 5847 5845 5842 5839 5837 5834 5831 5828 5825 5821 5817 5813 5809 5805 5801 5797 5792 5788 5783 5778 5773 5768 5762 5757 5752 5747 5743 5739 5736 5734 5734 5734 5737 5740 5744 5747 5751 5754 5758 5761 5764
5853 5851 5848 5846 5843 5841 5838 5836 5833 5830 5827 5824 5820 5816 5812 5808 5804 5800 5796 5791 5787 5782 5777 5772 5767 5762 5758 5753 5749 5745 5742 5739 5739 5739 5741 5744 5747 5750 5753 5757 5760 5763 5766